Погода в Василевичи

Погода в Василевичи : погода сейчас, прогноз погоды и архив. Всё, что Вы хотите узнать о погоде в Василевичи!

Хотите узнать прогноз погоды в Василевичи? Тогда Вам сюда: Погода в Василевичи

Поиск расширенной информации на нашем сайте:

Другие новости

Новости СМИ2

Главная страница сайта

Новости сайта

02.10.2013

Напоминаем, что на нашем новом сайте вы можете получить высокодетализированные прогнозы погоды по пунктам России, СНГ и мира (включающие важные для авиации метеовеличины, такие как направление и скорость ветра, видимость, явления погоды, количество и форма облачности, нижняя и верхняя граница облачности), а также ознакомиться с разнообразными материалами по авиационной метеорологии и подборкой полезных ссылок на эту тему.

Сайт Метеоцентр.Азия посвящён разработке технологий оптимизации авиаметеорологического обслуживания, включая проектирование и перспективное создание нескольких автоматизированных авиаметеорологических систем:
- система выпуска высокодетальных прогностических карт явлений погоды для нижнего воздушного пространства по России и ближнему зарубежью;
- система верификации прогнозов TAF (выпускаемых синоптиками официальных АМСГ РФ и ближнего зарубежья) и AUTOTAF (выпускаемых сайтом Метеоцентр.Азия) - выявление ошибок, онлайн-сопоставление с фактической погодой METAR, автоматическое внесение коррективов в прогнозы при резком отклонении фактической погоды от прогноза, подсчёт оправдываемости прогнозов по элементам и в целом;
- система обработки, анализа и отображения авиаметеорологической информации для применения провайдерами метеорологической информации.

Рекомендуем: Люстры гусь хрустальный marylyn съездили мы тут в хрустальный.

Погода в Василевичи - сегодня

Время (UTC), дата Ветер
(°,м/с) 
Видим.   Явления Облачность Т
(°С)
Тd
(°С)
f(%) Тe
(°С)
Pmin
(гПа)
dP
(гПа)
Po
(мм)
O2
(г/м3)
Тmin Tmax R s Состояние
почвы
12 17.02.17 230 (ЮЗ) 10 км    10/6 1000 м средняя 
[Sc|Ac und]
+3 -2.1 69 +2  1018.5  -1.2  751  299           
15 17.02.17 220 (ЮЗ) 10 км    10/10 1000 м 
[Sc]
+2.8 -1.4 74 +4  1018.1  -0.4  750  299           
18 17.02.17 210 (ЮЗ) 10 км    10/10 600 м 
[Sc]
+2.8 -2 71 +2  1017.8  -0.3  750  299    +3.6    17   
21 17.02.17 220 (ЮЗ) 10 км    10/10 600 м 
[Sc]
+2.3 -2.6 70 +2  1017.4  -0.5  750  300           
00 18.02.17 тихо ()   10 км    10/10 600 м 
[Sc]
+1.6 -2.5 74 +2  1017  -0.4  749  301           
03 18.02.17 210 (ЮЗ) 10 км    10/10 600 м 
[Sc]
+1.4 -1.8 79 +2  1016.3  -0.7  749  300        17   
06 18.02.17 230 (ЮЗ) 10 км    10/10 600 м 
[Sc]
+1.4 -1.5 81 +2  1016.9  0.6  749  301  +1      17  равномерный
мокрый или
старый снег
100% 
09 18.02.17 280 (З) 4000 м  в посл. час ливневой снег  10/10 600 м кучево-дожд. 
[Cb calv]
+1.3 +0.2 92 +2  1017.6  0.7  750  301           
12 18.02.17 290 (З) 4000 м  дымка{ливн. осадки}  10/10 600 м 
[Sc]
+2.4 +0.8 89 +2  1018.2  0.6  750  300           
15 18.02.17 280 (З) 10 км    10/10 600 м 
[Sc]
+2.2 -0.3 84 +2  1019.1  0.9  751  300      0.8     
18 18.02.17 240 (ЮЗ) 4000 м  дымка  10/10 1000 м 
[Sc]
+2 +0.4 89 +1  1020.5  1.3  752  301    +2.7  0.8  15   
21 18.02.17 270 (З) 4000 м  дымка  10/10 600 м 
[Sc]
+1.9 +0.6 91 +1  1021.6  1.1  753  301           
00 19.02.17 300 (СЗ) 4000 м  дымка  10/10 600 м 
[Sc]
+1.6 +0.5 92 +1  1022.3  0.7  753  302           
03 19.02.17 270 (З) 4000 м  дымка  10/10 600 м 
[Sc]
+1.3 -0.1 90 +1  1022.7  0.4  754  302        14   
06 19.02.17 230 (ЮЗ) 4000 м  дымка  10/10 300 м 
[St]
+1 +0.2 94 1023.2  0.5  754  303  +1      14  равномерный
мокрый или
старый снег
100% 
09 19.02.17 230 (ЮЗ) 4000 м  дымка  10/10 300 м 
[St]
+1.6 +0.5 92 +1  1023.1  -0.1  754  302           
12 19.02.17 250 (З) 10 км    10/10 600 м 
[Sc]
+2.7 -0.9 77 +1  1022.3  -0.7  753  301           
15 19.02.17 230 (ЮЗ) 10 км    10/10 600 м 
[Sc]
+2.7 -1.2 75 +1  1020.9  -1.4  752  300           
18 19.02.17 240 (ЮЗ) 10 км    10/10 600 м 
[Sc]
+2.2 -2.4 72 +2  1020.3  -0.7  752  301    +3.1    11   
21 19.02.17 240 (ЮЗ) 10 км    10/10 600 м 
[Sc]
+1.7 -2.7 73 1019.6  -0.6  751  301           
00 20.02.17 250 (З) 10 км    10/10 600 м 
[Sc]
+1.6 -2.5 74 1019  -0.6  751  301           
03 20.02.17 230 (ЮЗ) 3{10}  10 км    10/10 600 м 
[Sc]
+1.9 -2.5 73 1017.3  -1.7  750  300        11   
06 20.02.17 230 (ЮЗ) 10 км    9/0 верхняя 
[Ci fib]
+1.4 -2.7 74 +1  1016.2  -1.1  749  301  +1.1      11  равномерный
мокрый или
старый снег
100% 
09 20.02.17 230 (ЮЗ) 10 км    8/3 600 м верхняя 
[Cu hum|Ci fib]
+4.2 -1.9 64 +2  1015.6  -0.5  749  297           
12 20.02.17 250 (З) 4{10}  10 км    6/6 600 м 
[Cu hum]
+6.3 -1.2 59 +5  1013.1  -2.3  747  294           
Время (UTC), дата Ветер
(°,м/с) 
Видим.   Явления Облачность Т
(°С)
Тd
(°С)
f(%) Тe
(°С)
Pmin
(гПа)
dP
(гПа)
Po
(мм)
O2
(г/м3)
Тmin Tmax R s Состояние
почвы

Для получения пояснительной информации подведите курсор к названию столбца.

ПОГОДА в Василевичи - архив

Всё, что Вы хотите узнать о погоде в Василевичи - удобно и подробно!

Выберите нужную дату (начиная с 1 января 2015* года) и нажмите кнопку "Найти".
Будут отображены архивные сводки погоды по пункту Василевичи, начиная с указанной даты.


Отображать данные в формате CSV (для использования в таблицах Excel)


Внимание! Наш архив погоды предназначен исключительно для личного некоммерческого использования в познавательных целях. Если Вам необходимы официальные справки о состоянии погоды (для производственных, юридических, коммерческих и т.п. целей), обращайтесь в органы Росгидромета.

*Примечание: данная дата относится к архиву по метеостанциям СССР (Россия, СНГ, Балтия).
Архив по метеостанциям Зарубежной Европы и Азии (кроме Китая) хранится 10 дней, по другим регионам земного шара (Китай, Африка, Америка, Австралия, Океания) - 1 день.

Василевичи - район местоположения метеостанции


Название, широта, долгота, высота метеостанции:
Василевичи 52.2°ш. 29.8°д. 142 м над ур. моря [Беларусь]

Дополнительная информация

В oтличие oт бoльшинства пoгoдных сайтoв мы публикуем пoдрoбную метеoинфoрмацию в детальнoм прoфессиoнальнoм фoрмате.

Характеристики температуры и влажнoсти вoздуха измеряются на высoте 2 м в тени вдали oт зданий и деревьев.
Скoрoсть ветра измеряется на высoте 10 м (на урoвне рoста челoвека скoрoсть ветра ниже в 1.5-2 раза). Если метеoстанция нахoдится в гoрoде или в лесу, тo скoрoсть ветра занижена на 2-4 м/с пo сравнению с oткрытым местoм. Скoрoсть ветра над акватoриями крупных рек и oзёр, а также на вершинах хoлмoв на 2-5 м/с выше, чем в oбычных услoвиях.
Атмoсфернoе давление в разных тoчках местнoсти мoжет значительнo oтличаться oт давления на метеoстанции, в зависимoсти oт услoвий рельефа (при пoдъёме на 10 м давление пoнижается примернo на 1 мм рт.ст.).